{"data":{"norad_id":65978,"epoch":"2026-09-20T21:03:10.756512Z","epoch_age_seconds":107784,"freshness":"FRESH","line1":"1 65978U 25230E   26263.87720783  .00000150  00000+0  12411-3 0  9995","line2":"2 65978  81.2979 122.8442 0002608 338.8385  21.2663 13.84245304 47061","mean_motion":13.84245304,"eccentricity":0.0002608,"inclination_deg":81.2979,"raan_deg":122.8442,"arg_perigee_deg":338.8385,"mean_anomaly_deg":21.2663,"bstar":0.00012411,"rev_number":4706,"period_min":104.02780459785,"perigee_km":946.9567940263,"apogee_km":950.77855966574,"semimajor_km":7327.004676846,"source":"CELESTRAK","updated_at":"2026-09-21T09:00:15.687027Z"}}